Temperature
5 5 5 4 4 4 3 3 2 2 2 3 3 3 3 3 3 3 3 3 2 2 2 2 2 2 2 2 2 2 2 3 3 3 3 3 3 4
5 4 4 4 3 3 3 3 2 2 1 2 2 2 2 2 2 2 2 2 2 2 2 2 2 2 2 2 2 2 2 2 2 2 3 3 3 3
4 4 3 3 3 3 3 2 2 2 1 2 2 2 2 2 2 2 2 2 2 2 2 2 2 1 2 2 1 2 2 2 2 2 2 2 3 3
4 3 3 3 3 2 2 2 2 1 1 1 2 2 2 2 2 2 2 2 1 2 1 1 1 1 1 1 1 1 1 1 1 2 2 2 2 2
3 3 3 2 2 2 2 2 1 1 1 1 1 1 1 1 1 1 1 1 1 1 1 1 1 1 1 1 1 1 1 1 1 1 1 2 2 2
3 2 2 2 2 2 2 1 1 1 1 1 1 1 1 1 1 1 1 1 1 1 1 1 1 1 0 1 1 1 0 1 1 1 1 1 1 2
2 2 2 2 2 1 1 1 1 1 1 0 0 0 0 0 -0 -0 -0 0 1 1 1 1 0 0 0 0 0 0 0 0 0 1 1 1 1 1
2 2 2 2 1 1 1 1 0 0 0 0 -0 -0 -0 -1 -1 -1 -1 -1 -0 -0 -0 0 -0 -0 -0 -0 -0 -0 0 0 0 0 1 1 1 1
2 1 1 1 1 1 1 0 0 0 -0 -0 -1 -1 -1 -1 -1 -1 -1 -1 -1 -1 -1 -0 -0 -0 -0 -0 -0 -0 -0 -0 -0 0 0 1 1 1
1 1 1 1 1 1 0 0 0 0 -0 -0 -1 -1 -1 -1 -1 -1 -1 -1 -1 -1 -1 -1 -1 -1 -1 -1 -1 -1 -1 -1 -0 -0 0 0 0 1
1 1 0 0 0 0 0 0 0 -0 -0 -1 -1 -1 -1 -1 -2 -2 -2 -2 -2 -1 -2 -2 -2 -1 -1 -1 -1 -1 -1 -1 -1 -1 -0 -0 0 0
0 0 0 -0 -0 -0 -0 -0 -0 -0 -0 -1 -1 -1 -1 -1 -1 -2 -2 -2 -3 -3 -2 -3 -3 -3 -2 -1 -1 -1 -1 -1 -1 -1 -1 -1 -0 -0
-0 -0 -0 -0 -0 -0 -0 -1 -1 -1 -1 -1 -1 -1 -1 -1 -1 -2 -2 -3 -3 -3 -3 -3 -3 -3 -3 -3 -2 -2 -2 -2 -1 -1 -1 -1 -1 -1
-1 -1 -1 -1 -1 -1 -1 -1 -1 -1 -1 -1 -1 -1 -1 -1 -2 -2 -2 -2 -3 -3 -3 -3 -3 -3 -3 -3 -3 -2 -2 -2 -2 -1 -1 -1 -1 -1
-1 -1 -1 -1 -1 -1 -1 -1 -1 -1 -1 -2 -2 -2 -2 -2 -2 -2 -2 -2 -2 -2 -3 -3 -3 -3 -3 -3 -3 -3 -2 -2 -2 -2 -2 -2 -2 -1
-1 -1 -1 -1 -1 -1 -1 -2 -2 -2 -2 -2 -2 -2 -2 -2 -2 -2 -3 -3 -3 -2 -2 -3 -3 -3 -3 -3 -3 -3 -3 -3 -2 -2 -2 -2 -2 -2
-2 -2 -1 -1 -1 -1 -2 -2 -2 -2 -2 -2 -2 -2 -3 -3 -3 -3 -3 -3 -3 -3 -3 -2 -3 -3 -3 -3 -3 -3 -3 -3 -2 -2 -2 -2 -2 -2
-2 -2 -2 -2 -2 -2 -2 -2 -2 -2 -2 -2 -3 -3 -3 -3 -3 -3 -3 -3 -3 -3 -3 -3 -3 -3 -3 -3 -3 -3 -3 -3 -3 -3 -3 -3 -2 -2
-2 -2 -2 -2 -3 -3 -3 -3 -3 -3 -3 -3 -3 -3 -3 -3 -3 -3 -3 -3 -3 -3 -3 -3 -3 -3 -4 -4 -3 -3 -3 -3 -3 -3 -3 -3 -2 -2
-3 -3 -3 -3 -3 -3 -3 -3 -3 -3 -3 -3 -3 -4 -4 -4 -3 -3 -3 -4 -4 -4 -3 -3 -3 -3 -4 -4 -4 -3 -3 -3 -3 -3 -3 -3 -2 -2
-3 -3 -3 -3 -4 -4 -4 -4 -4 -4 -4 -4 -4 -4 -4 -4 -4 -4 -4 -4 -4 -4 -4 -4 -3 -3 -3 -4 -4 -3 -3 -3 -3 -3 -3 -3 -3 -2
-4 -4 -4 -4 -4 -4 -4 -4 -4 -4 -4 -4 -4 -4 -4 -4 -4 -4 -4 -4 -4 -4 -4 -4 -3 -3 -3 -4 -4 -4 -3 -3 -3 -3 -3 -3 -3 -3
-4 -4 -4 -4 -4 -4 -4 -4 -4 -4 -4 -4 -4 -4 -4 -4 -4 -4 -4 -4 -4 -4 -4 -4 -4 -3 -4 -4 -4 -4 -3 -3 -3 -3 -3 -3 -3 -3
Wind_Speed
1 2 2 2 2 2 3 3 4 7 8 6 5 6 11 13 16 16 16 19 21 20 20 20 20 20 21 22 22 22 22 22 22 21 21 22 22 21
2 2 2 3 2 2 3 4 4 5 8 7 7 8 10 13 17 17 16 20 20 20 20 20 20 20 21 21 21 21 22 21 21 21 21 21 21 20
2 2 3 3 3 3 3 4 4 5 9 10 7 8 10 10 13 14 15 14 15 19 20 20 20 20 20 21 20 21 21 21 20 20 20 20 20 19
2 3 4 4 4 4 4 4 5 5 7 11 10 9 10 10 10 11 12 14 14 17 19 19 20 19 20 20 20 20 21 20 19 19 19 19 19 18
3 3 4 4 5 4 5 5 5 6 6 8 10 9 8 8 9 10 11 10 13 15 17 17 19 19 19 20 19 20 19 19 19 19 19 18 18 17
3 3 4 4 5 5 5 5 6 7 7 8 9 9 8 8 8 9 10 9 10 11 13 15 17 18 18 19 19 19 18 18 18 18 18 18 17 16
3 4 4 5 6 6 6 6 6 6 6 7 8 9 8 9 9 7 10 10 9 6 7 9 10 9 11 15 16 17 18 18 18 19 18 18 17 15
4 4 5 4 6 8 10 10 9 7 7 7 7 9 10 9 9 9 9 10 8 5 7 9 7 7 8 9 15 17 18 18 18 18 18 18 17 15
3 3 4 5 6 5 8 10 10 11 10 7 8 9 10 9 10 10 9 10 9 7 7 8 6 7 9 11 16 17 17 18 18 18 17 17 16 15
3 3 4 4 5 6 6 6 7 7 9 7 7 8 8 8 8 8 9 9 8 6 5 6 7 7 8 9 13 16 17 17 17 18 18 18 17 16
4 4 4 4 8 9 6 7 8 8 10 12 13 13 14 14 11 7 7 7 8 6 3 4 5 7 6 5 9 14 15 16 17 17 18 18 16 15
3 3 5 7 9 9 5 6 8 8 8 9 9 10 10 10 11 6 5 6 7 6 4 5 5 6 5 4 5 8 10 13 16 17 17 17 16 10
3 3 4 9 10 10 8 5 9 9 7 7 7 7 6 5 6 6 5 4 6 6 6 5 5 4 4 5 5 5 7 7 8 11 14 15 16 12
4 4 5 9 10 10 8 9 11 9 5 5 6 6 6 6 6 6 7 7 7 8 9 7 4 4 5 6 6 6 6 6 6 7 8 12 12 13
4 7 8 9 8 7 8 10 8 5 5 5 6 6 5 6 6 6 6 7 7 8 8 7 4 4 4 5 6 6 6 6 6 5 6 6 6 6
4 6 7 7 6 7 7 6 5 5 5 5 6 5 5 5 5 5 5 6 5 6 7 7 5 3 4 5 5 6 6 5 6 6 6 5 6 7
4 3 3 4 4 5 5 5 5 5 6 5 5 6 6 6 6 5 5 5 5 6 7 6 6 4 3 4 4 5 5 5 5 6 5 6 5 6
4 3 3 4 4 5 5 5 5 5 6 6 6 6 6 6 6 6 5 5 5 6 6 6 6 5 4 2 2 4 4 4 5 5 5 4 6 6
2 2 3 4 4 5 5 5 5 6 6 5 6 6 6 6 6 6 6 5 5 6 6 5 5 4 5 6 4 3 3 5 5 5 4 4 4 5
2 3 4 4 4 5 5 5 6 6 6 6 6 6 6 6 6 6 5 6 6 6 6 5 4 4 4 4 4 4 6 4 4 4 5 4 4 5
3 3 4 4 5 5 5 5 6 6 6 6 6 6 6 6 6 5 5 7 6 5 5 5 5 7 4 3 3 4 4 6 4 3 4 4 4 4
4 4 4 4 4 5 5 5 6 6 6 6 6 6 6 5 5 6 5 5 5 5 5 5 5 4 3 3 3 4 5 5 7 8 6 4 2 3
4 4 4 4 4 5 5 5 6 6 6 6 6 6 5 5 5 4 5 5 5 5 5 4 4 3 3 2 3 3 5 5 4 5 5 8 6 5
Wind_Direction
298 305 307 299 298 300 301 293 292 303 302 299 314 313 325 324 320 321 317 316 319 319 320 321 322 323 324 324 323 322 322 321 321 320 316 313 311 306
296 306 314 310 314 307 298 293 280 280 290 295 302 307 319 319 318 321 317 318 317 318 320 321 322 323 325 325 325 325 324 324 323 321 320 317 316 312
300 305 305 307 306 299 297 294 290 287 290 299 300 310 313 313 318 319 318 316 315 316 320 322 324 324 325 325 326 327 326 325 325 324 323 321 319 317
291 301 302 308 305 301 298 293 291 289 292 301 307 313 311 313 316 316 320 320 316 316 321 322 324 325 326 327 327 326 326 326 326 326 326 326 325 323
287 290 294 300 300 302 299 295 295 299 295 299 305 309 311 317 319 316 318 316 317 319 320 321 322 325 327 328 328 328 329 329 330 330 330 329 327 325
286 288 291 286 287 292 296 294 300 303 303 303 305 311 314 316 321 323 322 322 317 320 323 322 321 323 325 328 330 331 333 334 335 335 334 334 332 330
290 289 288 294 301 308 308 306 308 304 306 307 309 314 318 326 326 321 320 319 313 316 323 319 318 316 320 325 331 334 336 338 340 341 342 342 340 336
291 295 295 291 304 315 316 316 313 306 307 305 306 311 314 317 318 320 321 323 315 326 324 315 320 316 320 320 329 335 338 341 343 345 346 347 348 347
287 292 303 308 311 301 309 314 311 310 307 304 302 304 306 313 316 317 318 315 305 314 322 306 315 312 317 320 330 335 340 345 349 350 351 351 350 350
293 289 294 299 304 314 311 310 305 304 302 300 291 293 299 304 305 306 306 309 301 306 323 304 311 311 311 314 327 338 342 347 350 353 356 358 357 357
297 302 306 296 309 322 321 313 311 309 311 308 304 304 309 317 323 324 324 325 317 312 323 315 310 314 307 306 325 340 345 348 351 354 355 356 356 354
306 304 306 311 315 322 317 311 311 312 316 319 317 316 315 317 322 317 311 315 314 308 321 328 314 327 321 308 321 336 340 343 348 350 352 355 356 354
313 313 311 316 318 319 321 309 310 319 317 318 318 318 320 323 323 317 309 305 302 295 308 320 308 315 303 305 312 322 335 335 341 345 348 353 356 358
309 309 312 319 320 321 323 323 325 330 325 322 321 320 323 324 322 318 311 302 292 288 297 303 295 305 312 309 310 320 328 333 340 341 346 351 356 359
320 321 322 322 323 322 327 332 335 330 325 322 318 315 316 315 318 321 319 316 311 306 303 295 293 302 304 302 310 316 320 327 342 348 349 348 347 349
329 328 331 327 330 330 336 336 333 328 326 314 314 314 320 326 327 325 326 330 328 325 320 316 304 302 309 300 301 311 319 323 332 336 339 344 351 355
342 341 340 340 344 343 339 336 335 335 331 326 323 323 325 327 325 326 326 330 330 328 331 334 328 303 285 301 309 315 322 321 326 339 345 351 354 354
5 348 337 334 334 332 332 332 333 332 329 326 325 326 327 325 324 326 328 329 328 327 327 328 336 339 333 328 315 310 327 329 333 342 348 349 351 358
3 335 325 322 324 325 325 325 324 324 325 326 326 327 325 324 323 324 326 327 325 323 321 324 331 337 340 340 337 351 339 333 337 342 345 344 342 348
338 324 321 322 322 322 324 324 324 326 329 328 327 327 325 323 324 325 325 323 322 323 327 332 335 329 319 317 317 326 344 334 336 338 337 335 339 344
332 329 325 323 323 322 321 320 320 321 323 325 325 324 322 322 321 322 323 323 323 324 327 329 324 321 315 319 330 343 348 358 1 344 338 337 342 359
330 327 324 322 322 319 319 321 323 323 324 323 322 322 320 318 317 318 322 323 322 321 319 323 329 341 354 354 349 342 345 352 3 10 13 14 3 11
321 319 318 321 322 320 319 321 321 321 322 322 320 319 319 318 316 315 317 317 321 326 330 336 344 350 350 349 352 350 352 356 359 7 9 13 21 16
Height
1520 1519 1518 1516 1515 1514 1512 1509 1506 1499 1493 1491 1489 1486 1483 1479 1475 1471 1467 1463 1459 1455 1451 1447 1443 1439 1435 1431 1426 1422 1418 1414 1410 1406 1403 1400 1397 1394
1517 1516 1515 1513 1512 1510 1508 1506 1504 1500 1493 1488 1486 1483 1479 1475 1471 1467 1463 1459 1455 1451 1447 1443 1439 1435 1431 1426 1422 1417 1413 1409 1405 1401 1398 1394 1391 1388
1514 1512 1511 1510 1508 1506 1505 1503 1500 1497 1491 1485 1483 1479 1475 1471 1467 1463 1459 1455 1451 1447 1443 1439 1435 1431 1426 1422 1418 1413 1409 1404 1400 1396 1392 1389 1386 1382
1510 1509 1508 1506 1505 1503 1501 1498 1496 1493 1489 1483 1478 1475 1471 1467 1463 1459 1455 1451 1447 1443 1439 1435 1431 1427 1423 1418 1414 1409 1405 1400 1396 1392 1388 1384 1380 1377
1507 1506 1504 1503 1501 1499 1497 1495 1492 1489 1486 1481 1475 1471 1467 1464 1459 1455 1451 1446 1442 1439 1435 1431 1427 1423 1419 1414 1410 1406 1401 1397 1393 1388 1384 1379 1376 1373
1504 1503 1501 1500 1498 1496 1493 1491 1488 1485 1482 1478 1473 1468 1464 1460 1456 1451 1445 1441 1438 1434 1431 1427 1423 1419 1415 1411 1407 1402 1398 1394 1389 1385 1380 1375 1372 1369
1500 1499 1498 1497 1495 1493 1491 1488 1485 1481 1478 1474 1470 1465 1461 1456 1452 1448 1443 1438 1434 1431 1426 1423 1419 1415 1411 1407 1403 1399 1395 1391 1386 1382 1377 1373 1369 1366
1496 1495 1494 1493 1491 1490 1487 1485 1482 1479 1475 1471 1467 1463 1458 1455 1450 1446 1441 1435 1429 1428 1424 1419 1417 1412 1408 1404 1401 1397 1393 1389 1384 1380 1376 1372 1368 1365
1493 1492 1491 1489 1488 1485 1483 1481 1478 1476 1473 1470 1465 1461 1457 1453 1448 1444 1440 1435 1430 1426 1422 1416 1413 1409 1406 1402 1399 1396 1392 1388 1383 1379 1375 1371 1368 1364
1489 1488 1487 1486 1484 1482 1479 1476 1474 1471 1469 1465 1462 1458 1455 1451 1447 1443 1438 1433 1429 1425 1421 1415 1410 1407 1404 1400 1397 1394 1390 1386 1382 1379 1375 1371 1367 1364
1486 1485 1484 1482 1481 1479 1475 1472 1469 1467 1465 1462 1459 1455 1452 1448 1444 1440 1435 1430 1425 1421 1419 1415 1409 1405 1401 1398 1396 1393 1389 1386 1382 1378 1374 1371 1368 1364
1482 1481 1480 1479 1477 1475 1472 1469 1465 1463 1460 1457 1454 1451 1448 1444 1441 1437 1433 1429 1424 1420 1417 1414 1409 1405 1399 1397 1395 1391 1388 1384 1381 1378 1374 1371 1368 1364
1478 1477 1476 1475 1473 1471 1469 1466 1463 1460 1457 1454 1450 1447 1444 1441 1438 1435 1432 1428 1424 1420 1417 1413 1409 1405 1402 1397 1392 1390 1387 1383 1380 1377 1374 1371 1368 1364
1475 1474 1473 1471 1470 1467 1465 1463 1460 1457 1454 1451 1447 1444 1441 1438 1435 1432 1429 1426 1422 1419 1415 1412 1409 1405 1401 1396 1392 1389 1387 1384 1380 1377 1374 1371 1368 1366
1473 1472 1470 1468 1466 1464 1462 1459 1457 1454 1451 1448 1444 1442 1439 1436 1432 1429 1426 1423 1420 1417 1414 1411 1408 1405 1401 1397 1393 1389 1386 1383 1381 1377 1374 1371 1368 1366
1470 1469 1467 1466 1464 1461 1459 1456 1454 1451 1448 1446 1442 1439 1436 1433 1430 1427 1423 1420 1417 1414 1412 1409 1407 1404 1400 1397 1394 1390 1387 1384 1381 1378 1375 1372 1369 1367
1467 1466 1464 1462 1460 1458 1456 1454 1451 1449 1446 1443 1440 1437 1434 1431 1428 1425 1422 1419 1416 1412 1410 1408 1406 1403 1400 1397 1393 1390 1387 1384 1381 1378 1375 1372 1370 1368
1465 1463 1462 1460 1458 1456 1453 1451 1449 1446 1444 1441 1438 1435 1432 1429 1426 1424 1421 1418 1415 1412 1410 1407 1405 1401 1399 1396 1394 1390 1387 1385 1382 1379 1376 1373 1371 1369
1462 1461 1459 1458 1456 1454 1451 1449 1447 1444 1442 1439 1436 1433 1431 1428 1425 1422 1420 1418 1415 1412 1410 1407 1405 1401 1398 1395 1394 1392 1388 1385 1383 1380 1377 1375 1372 1370
1460 1459 1457 1456 1454 1452 1449 1447 1445 1442 1440 1437 1434 1432 1429 1427 1424 1421 1419 1417 1414 1411 1409 1407 1404 1402 1399 1397 1394 1392 1390 1387 1384 1381 1379 1377 1374 1373
1458 1456 1455 1453 1451 1449 1447 1445 1443 1440 1438 1435 1433 1430 1428 1425 1423 1421 1418 1416 1414 1411 1408 1406 1404 1403 1400 1397 1394 1392 1390 1388 1386 1383 1380 1378 1375 1373
1455 1454 1452 1451 1449 1447 1445 1443 1441 1438 1436 1433 1431 1429 1427 1424 1422 1420 1418 1416 1413 1411 1409 1406 1404 1402 1400 1397 1395 1393 1391 1389 1387 1385 1383 1381 1378 1375
1453 1452 1450 1449 1447 1445 1443 1441 1438 1436 1434 1432 1430 1428 1426 1424 1422 1420 1418 1415 1413 1411 1409 1406 1404 1402 1400 1398 1396 1394 1392 1390 1388 1386 1385 1383 1381 1379